DELTA 1 DEB, 29189

Orbit data source: Space-Track

DELTA 1 DEB, 29189 is space debris in LEO originally from a launch on Thu, 11 Jan 1968 UTC launched from the Air Force Western Test Range (AFWTR). Debris objects in space refer to the collection of defunct objects orbiting the Earth. Examples of debris include non-operational satellites, rocket bodies, and fragments generated from explosions, collisions, or faulty payload assembly.

Loading next visibility...
Identifier
29189, 1968-002N
Orbit
LEO
Country
Flag of USUS
Related business
Manufacturer
Unknown
Mission
Spacecraft
Bus & Motor
Unknown
Mass
Unknown
Launch date (UTC)
1968-01-11 (58 years ago)
Launch vehicle
Unknown
Launch site
Air Force Western Test Range (AFWTR)
Object type
Payload
Rocket body
Debris
Shape & HBR
Unknown shape, 0.1 m
Radar Cross Section
Small (<0.1 m²)

Expand to show TLE details & history
Last TLE update: 1 month ago

TLE from 1 month ago
0 DELTA 1 DEB
1 29189U 68002N   25266.97526008  .00000237  00000-0  73889-3 0  9993
2 29189 105.8253 158.5521 0247229 329.0861  46.0951 13.14621244494546
Epoch: 2025-09-23T23:24Z
TLE epoch observation values (Epoch: 2025-09-23T23:24:22.470Z)
Latitude
16.58361°
Longitude
159.58393°
Altitude
1,079.614 km
Speed
7.375 km/s
True Right ascension
10h 14m 56s
True Declination
16° 29' 38"
Sunlit
Object was in daylight at epoch
Visualization orbit readout
Latitude
Unknown
Longitude
Unknown
Altitude
Unknown
Speed
Unknown
Apparent Right ascension
Unknown
Apparent Declination
Unknown
Sunlit
N/A
Visualization observer readout
Local Sidereal Time
22:01:32
Azimuth
Unknown
Elevation
Unknown
Doppler factor
Unknown
Orbital elements
Apogee altitude
1,390.512 km
Perigee altitude
1,015.652 km
Semi-major axis
7,581.219 km
Eccentricity
0.02472
Inclination
105.8253°
RAAN
158.5521°
Arg. of periapsis
329.0861°
True anomaly
48.18048°
Mean anomaly
46.0951°
Eccentric anomaly
47.13332°
Mean motion
3.28802 °/min
Orbital period
109.49 mins
BSTAR
0.00073889
Loading maneuver chart data...
Computing Atmospheric mass density...
Loading historical data...
Loading historical data...
Loading historical data...
Loading historical data...
Loading historical data...
Loading historical data...
Loading historical data...

Documentation

Showing up to 5 results
|